METEOR 2-5 DEB, 38274

Orbit data source: Space-Track

METEOR 2-5 DEB, 38274 is space debris in LEO originally from a launch on Wed, 31 Oct 1979 UTC launched from the Plesetsk Missile And Space Complex (PKMTR). Debris objects in space refer to the collection of defunct objects orbiting the Earth. Examples of debris include non-operational satellites, rocket bodies, and fragments generated from explosions, collisions, or faulty payload assembly.

Loading next visibility...
Identifier
38274, 1979-095BU
Orbit
LEO
Country
Flag of CISCIS
Related business
Manufacturer
Unknown
Mission
Spacecraft
Bus & Motor
Unknown
Mass
Unknown
Launch date (UTC)
1979-10-31 (46 years ago)
Launch vehicle
Unknown
Launch site
Plesetsk Missile And Space Complex (PKMTR)
Object type
Payload
Rocket body
Debris
Shape & HBR
Unknown shape, 0.1 m
Radar Cross Section
Small (<0.1 m²)

Expand to show TLE details & history
Last TLE update: 12 hours ago

TLE from 12 hours ago
0 METEOR 2-5 DEB
1 38274U 79095BU  25355.09648794  .00005621  00000-0  15954-2 0  9991
2 38274  81.1894 292.2407 0015745 118.6284 241.6492 14.45291524586740
Epoch: 2025-12-21T02:18Z
TLE epoch observation values (Epoch: 2025-12-21T02:18:56.558Z)
Latitude
-0°
Longitude
167.5912°
Altitude
749.352 km
Speed
7.477 km/s
True Right ascension
19h 28m 57s
True Declination
0° 00' 00"
Sunlit
Object was in daylight at epoch
Visualization orbit readout
Latitude
Unknown
Longitude
Unknown
Altitude
Unknown
Speed
Unknown
Apparent Right ascension
Unknown
Apparent Declination
Unknown
Sunlit
N/A
Visualization observer readout
Local Sidereal Time
13:23:36
Azimuth
Unknown
Elevation
Unknown
Doppler factor
Unknown
Orbital elements
Apogee altitude
749.403 km
Perigee altitude
726.994 km
Semi-major axis
7,116.335 km
Eccentricity
0.00157
Inclination
81.1894°
RAAN
292.2407°
Arg. of periapsis
118.6284°
True anomaly
241.49056°
Mean anomaly
241.6492°
Eccentric anomaly
241.56987°
Mean motion
3.61542 °/min
Orbital period
99.57 mins
BSTAR
0.0015954
Loading maneuver chart data...
Computing Atmospheric mass density...

Documentation

Showing up to 5 results
|